This demonstration page uses our WeatherBlox Daily Observations layout. Learn more.

Left ArrowRight Arrow

Hourly Observations for November 20, 2016

Temp ( °F °C ) Dew Point ( °F °C ) Humidity (%) Winds ( mph kmh ) Pressure ( in mb ) Visibility ( mi km ) Precip ( " mm )
12:59 am 00:59 Mostly Clear 45 7.2 22 -5.6 40 40 NW 21 33 29.93 1014 10 16 0.00 0.00
1:59 am 01:59 Clear 45 7.2 23 -5 42 42 WNW 22 35 29.93 1014 10 16 0.00 0.00
2:59 am 02:59 Mostly Clear 43 6.1 25 -3.9 49 49 W 15 24 29.94 1014 10 16 0.00 0.00
3:59 am 03:59 Mostly Clear 42 5.6 24 -4.4 49 49 W 22 35 29.95 1014 10 16 0.00 0.00
4:59 am 04:59 Partly Cloudy 42 5.6 24 -4.4 49 49 W 16 26 29.96 1014 10 16 0.00 0.00
5:59 am 05:59 Partly Cloudy 41 5 23 -5 49 49 W 18 30 29.96 1015 10 16 0.00 0.00
6:59 am 06:59 Partly Cloudy 41 5 23 -5 49 49 W 16 26 29.97 1015 10 16 0.00 0.00
7:59 am 07:59 Mostly Cloudy 43 6.1 23 -5 45 45 W 15 24 29.98 1015 10 16 0.00 0.00
8:59 am 08:59 Mostly Cloudy 43 6.1 24 -4.4 47 47 W 20 31 29.98 1015 10 16 0.00 0.00
9:59 am 09:59 Cloudy 46 7.8 22 -5.6 38 38 W 18 30 29.97 1015 10 16 0.00 0.00
10:59 am 10:59 Mostly Cloudy 47 8.3 21 -6.1 36 36 W 20 31 29.95 1014 10 16 0.00 0.00
11:59 am 11:59 Mostly Cloudy 47 8.3 21 -6.1 36 36 WNW 18 30 29.93 1014 10 16 0.00 0.00
12:59 pm 12:59 Mostly Cloudy 49 9.4 20 -6.7 32 32 WNW 25 41 29.91 1013 10 16 0.00 0.00
1:59 pm 13:59 Mostly Cloudy 51 10.6 21 -6.1 31 31 W 21 33 29.89 1012 10 16 0.00 0.00
2:59 pm 14:59 Partly Cloudy 50 10 20 -6.7 30 30 W 16 26 29.89 1012 10 16 0.00 0.00
3:59 pm 15:59 Mostly Cloudy 50 10 22 -5.6 33 33 W 17 28 29.89 1012 10 16 0.00 0.00
4:59 pm 16:59 Partly Cloudy 48 8.9 19 -7.2 32 32 WNW 25 41 29.91 1013 10 16 0.00 0.00
5:59 pm 17:59 Partly Cloudy 47 8.3 23 -5 39 39 W 17 28 29.93 1014 10 16 0.00 0.00
6:59 pm 18:59 Mostly Clear 46 7.8 22 -5.6 38 38 WNW 18 30 29.95 1014 10 16 0.00 0.00
7:59 pm 19:59 Mostly Clear 44 6.7 20 -6.7 38 38 NW 22 35 29.96 1015 10 16 0.00 0.00
8:59 pm 20:59 Mostly Clear 42 5.6 21 -6.1 43 43 NW 15 24 29.96 1015 10 16 0.00 0.00
9:59 pm 21:59 Mostly Clear 41 5 23 -5 49 49 W 14 22 29.97 1015 10 16 0.00 0.00
10:59 pm 22:59 Clear 41 5 23 -5 49 49 WNW 21 33 29.97 1015 9 14 0.00 0.00
11:59 pm 23:59 Clear 40 4.4 22 -5.6 49 49 WNW 20 31 29.96 1015 10 16 0.00 0.00

Powered by AerisWeather